Location: Gwatt
(46.7204°N, 7.6223°E)
Time: 17:24:30
(UTC+00:00)

Cosmos 2195 Rocket - Pass Details

Date: 18 September 2020
Orbit: 948 x 994 km, 82.9° (Epoch: 28 October)

Event Time Altitude Azimuth Distance (km) Brightness Sun altitude
Rises 19:52:15 0° 351° (N) 3,702 8.1 -23.3°
Reaches altitude 10° 19:54:48 10° 352° (N) 2,744 7.3 -23.7°
Maximum altitude 20:01:06 86° 82° (E) 981 4.4 -24.6°
Enters shadow 20:03:08 46° 169° (SSE) 1,280 4.8 -24.9°
